[[{"header":{"parameterUnit":"m.s-1","parameterCategory":1,"la1":30.2991,"la2":30.254,"lo1":-89.0895,"lo2":-89.0444,"dy":0.0017,"dx":0.0017,"nx":28,"ny":28,"refTime":"2024-05-06T21:00:00:Z","depth":0,"parameterNumber":2,"parameterNumberName":"U-component_of_WINDS"},"data":[0,0,0,0,0,0,0,0,0,0,0,0,0,0,0,0,0,0,0,0,0,0,0,0,0,0,0,0,0,0,0,0,0,0,0,0,0,0,0,0,0,0,0,0,0,0,0,0,0,0,0,0,0,0,0,0,0,0,-0.1939,-0.1939,0,-0.1955,-0.1955,-0.1955,-0.1972,-0.1972,-0.1973,-0.1973,-0.199,-0.199,-0.1991,0,0,0,0,0,0,0,0,0,0,0,0,0,-0.1925,-0.1926,-0.1939,-0.1939,-0.1939,-0.1955,-0.1955,-0.1955,-0.1972,-0.1972,-0.1973,-0.1973,-0.199,-0.199,-0.1991,0,0,0,0,0,0,0,0,0,0,0,0,0,-0.1935,-0.1926,-0.1939,-0.195,-0.1951,-0.1955,-0.1955,-0.1955,-0.1972,-0.1972,-0.1973,-0.1973,-0.199,-0.199,-0.1991,-0.1986,0,0,-0.1992,-0.1992,0,0,0,0,0,0,0,0,-0.1935,-0.1936,-0.1948,-0.1949,-0.195,-0.1962,-0.1957,-0.1966,-0.1972,-0.1964,-0.1973,-0.1973,-0.1981,-0.1982,-0.1984,-0.1987,-0.1988,-0.1992,-0.1992,-0.1992,-0.1992,0,0,0,0,0,0,0,-0.1934,-0.1935,-0.1945,-0.1948,-0.1949,-0.1954,-0.1956,-0.1959,-0.197,-0.1965,-0.1966,-0.1968,-0.1981,-0.1984,-0.1985,-0.1988,-0.1992,-0.1992,-0.1992,-0.1993,-0.199,-0.199,0,0,0,0,0,0,-0.1931,-0.1934,-0.1945,-0.1946,-0.1943,-0.1954,-0.1956,-0.1958,-0.197,-0.1972,-0.1967,-0.1968,-0.1983,-0.1984,-0.1985,-0.1982,-0.1992,-0.1993,-0.1993,-0.199,-0.199,-0.199,0,0,0,0,0,0,-0.1931,-0.1932,-0.1944,-0.1941,-0.1942,-0.1954,-0.1956,-0.1958,-0.196,-0.1972,-0.1974,-0.1967,-0.1983,-0.1985,-0.1986,-0.1983,-0.1993,-0.1993,-0.1991,-0.199,-0.199,-0.1974,0,0,0,0,0,0,-0.1931,-0.1932,-0.193,-0.194,-0.1943,-0.1944,-0.1955,-0.1958,-0.1961,-0.1962,-0.1973,-0.1975,-0.1984,-0.1985,-0.1986,-0.1983,-0.1993,-0.1991,-0.199,-0.199,-0.1975,-0.1973,-0.1972,0,0,0,0,0,-0.193,-0.1924,-0.1929,-0.1931,-0.194,-0.1944,-0.1945,-0.1955,-0.196,-0.1959,-0.1967,-0.1975,-0.1983,-0.1985,-0.1987,-0.1984,-0.1991,-0.1991,-0.199,-0.1976,-0.1974,-0.1972,0,0,0,0,0,0,-0.1913,-0.1926,-0.1932,-0.1929,-0.1935,-0.1947,-0.1944,-0.1952,-0.1957,-0.1958,-0.197,-0.1973,-0.1973,-0.1979,-0.1981,-0.1981,-0.1988,-0.1988,-0.1977,-0.1975,-0.1974,-0.1972,-0.1994,0,0,0,0,0,-0.1909,-0.191,-0.1922,-0.1919,-0.1921,-0.1932,-0.1935,-0.1942,-0.1949,-0.1951,-0.1959,-0.1966,-0.1971,-0.1973,-0.1978,-0.1976,-0.1979,-0.1975,-0.1973,-0.1972,-0.1971,-0.1973,-0.1971,-0.1987,-0.1987,-0.1988,0,0,-0.19,-0.1908,-0.1908,-0.1915,-0.1921,-0.1923,-0.1934,-0.1936,-0.1938,-0.1952,-0.1954,-0.196,-0.1969,-0.1969,-0.197,-0.1974,-0.1968,-0.1971,-0.197,-0.197,-0.1972,-0.197,-0.1969,-0.1987,-0.1987,-0.1987,0,0,-0.1886,-0.1891,-0.189,-0.1896,-0.1904,-0.1912,-0.1911,-0.1922,-0.1927,-0.1929,-0.194,-0.1943,-0.195,-0.1956,-0.196,-0.195,-0.1959,-0.1952,-0.1943,-0.1944,-0.1943,-0.1942,-0.1939,-0.1938,-0.1951,-0.1951,-0.1951,0,-0.1875,-0.1878,-0.1888,-0.189,-0.1893,-0.1906,-0.1905,-0.1911,-0.192,-0.1923,-0.1927,-0.1937,-0.1944,-0.1947,-0.1944,-0.1947,-0.1948,-0.195,-0.1942,-0.1941,-0.194,-0.1938,-0.1937,-0.195,-0.195,-0.195,-0.1951,0,-0.1864,-0.1866,-0.1864,-0.1873,-0.1877,-0.1877,-0.1889,-0.1891,-0.1899,-0.1906,-0.1909,-0.1918,-0.1925,-0.1926,-0.1933,-0.1931,-0.1933,-0.194,-0.1947,-0.1938,-0.1936,-0.1935,-0.1949,-0.1949,-0.195,-0.195,0,0,-0.1839,-0.1855,-0.1854,-0.1859,-0.187,-0.1872,-0.1874,-0.1881,-0.1884,-0.189,-0.1893,-0.1899,-0.1906,-0.191,-0.1918,-0.1919,-0.1913,-0.1926,-0.1926,-0.1924,-0.1912,-0.1907,-0.1906,-0.1918,-0.1918,-0.1918,-0.1912,0,-0.1827,-0.183,-0.184,-0.1841,-0.1844,-0.1857,-0.1859,-0.1866,-0.1874,-0.1878,-0.1887,-0.1892,-0.1899,-0.1902,-0.1904,-0.1913,-0.1911,-0.1914,-0.1922,-0.1922,-0.1919,-0.1905,-0.19,-0.1893,-0.1911,-0.1911,-0.1911,0,-0.1814,-0.182,-0.182,-0.1833,-0.1835,-0.1836,-0.1844,-0.1848,-0.1857,-0.1863,-0.1869,-0.1878,-0.1882,-0.1889,-0.1895,-0.1897,-0.1901,-0.1907,-0.1907,-0.1908,-0.1916,-0.1907,-0.1891,-0.1891,-0.191,-0.191,-0.191,0,-0.1796,-0.1805,-0.1807,-0.1811,-0.1825,-0.1826,-0.1832,-0.1842,-0.1846,-0.1853,-0.1856,-0.1864,-0.1869,-0.1875,-0.1887,-0.1891,-0.1892,-0.19,-0.1898,-0.1898,-0.1898,-0.1898,-0.1883,-0.1899,-0.1899,-0.1899,-0.1899,0,-0.1783,-0.1783,-0.1799,-0.1801,-0.1802,-0.1814,-0.1815,-0.1823,-0.1832,-0.1836,-0.1847,-0.1851,-0.1866,-0.1871,-0.188,-0.1885,-0.1887,-0.1892,-0.1895,-0.1891,-0.1891,-0.1894,-0.1895,-0.1899,-0.1899,-0.1899,-0.1899,0,-0.1763,-0.1774,-0.1778,-0.1791,-0.1795,-0.1795,-0.1807,-0.181,-0.1818,-0.1823,-0.1825,-0.1839,-0.1846,-0.1858,-0.1869,-0.1876,-0.1879,-0.1883,-0.1875,-0.1877,-0.1874,-0.1875,-0.1862,-0.1862,-0.1878,-0.1877,-0.1877,0,-0.1754,-0.1755,-0.1769,-0.1772,-0.1778,-0.1783,-0.1787,-0.18,-0.1804,-0.1816,-0.1818,-0.1826,-0.1833,-0.1844,-0.1856,-0.1865,-0.187,-0.1865,-0.1871,-0.1868,-0.1871,-0.1871,-0.1871,-0.1863,-0.1863,-0.1863,-0.1863,0,-0.1737,-0.1743,-0.1748,-0.1757,-0.1762,-0.1769,-0.1777,-0.1779,-0.1794,-0.1798,-0.1806,-0.1812,-0.1823,-0.1832,-0.1843,-0.185,-0.1859,-0.1861,-0.1861,-0.1857,-0.1854,-0.1857,-0.1872,-0.1861,-0.1861,-0.1861,-0.1861,-0.1861,-0.1723,-0.1725,-0.1735,-0.1742,-0.1749,-0.1756,-0.176,-0.1769,-0.1776,-0.1786,-0.1793,-0.1801,-0.1812,-0.1827,-0.1834,-0.1841,-0.1845,-0.1845,-0.1845,-0.1845,-0.1844,-0.1852,-0.1843,-0.1843,-0.1843,-0.1843,-0.1843,0,-0.1707,-0.1715,-0.1721,-0.1732,-0.1737,-0.1745,-0.1755,-0.1759,-0.1765,-0.1775,-0.1782,-0.1792,-0.18,-0.1813,-0.1823,-0.1826,-0.1831,-0.1829,-0.1829,-0.1831,-0.184,-0.1839,-0.1825,-0.1825,-0.1825,-0.1825,-0.1825,-0.1825,-0.17,-0.1703,-0.1711,-0.1719,-0.1727,-0.1734,-0.1739,-0.1746,-0.1754,-0.1764,-0.1771,-0.1779,-0.1791,-0.1802,-0.1811,-0.1815,-0.1818,-0.1814,-0.182,-0.1828,-0.183,-0.1831,-0.1831,-0.1815,-0.1815,-0.181,-0.181,-0.181]},{"header":{"parameterUnit":"m.s-1","parameterCategory":1,"la1":30.2991,"la2":30.254,"lo1":-89.0895,"lo2":-89.0444,"dy":0.0017,"dx":0.0017,"nx":28,"ny":28,"refTime":"2024-05-06T21:00:00:Z","depth":0,"parameterNumber":3,"parameterNumberName":"V-component_of_WINDS"},"data":[0,0,0,0,0,0,0,0,0,0,0,0,0,0,0,0,0,0,0,0,0,0,0,0,0,0,0,0,0,0,0,0,0,0,0,0,0,0,0,0,0,0,0,0,0,0,0,0,0,0,0,0,0,0,0,0,0,0,5.087,5.0871,0,5.1026,5.1028,5.103,5.1042,5.104,5.1039,5.1037,5.1192,5.1198,5.1203,0,0,0,0,0,0,0,0,0,0,0,0,0,5.0576,5.0581,5.0869,5.0871,5.0873,5.1026,5.1028,5.103,5.1042,5.104,5.1038,5.1036,5.119,5.1197,5.1204,0,0,0,0,0,0,0,0,0,0,0,0,0,5.0715,5.0583,5.0869,5.0898,5.0902,5.1026,5.1028,5.1031,5.1043,5.104,5.1038,5.1035,5.1188,5.1196,5.1205,5.1308,0,0,5.1231,5.1235,0,0,0,0,0,0,0,0,5.0707,5.0726,5.0892,5.0896,5.0901,5.1012,5.0981,5.1124,5.1044,5.0989,5.1037,5.1034,5.1134,5.1147,5.1182,5.1316,5.1322,5.1232,5.1237,5.1241,5.1243,0,0,0,0,0,0,0,5.0697,5.0719,5.0931,5.0894,5.09,5.0901,5.0918,5.1008,5.1074,5.0994,5.0995,5.1014,5.1136,5.1173,5.1185,5.1325,5.1232,5.1239,5.1244,5.1248,5.1551,5.1554,0,0,0,0,0,0,5.0683,5.0711,5.0926,5.0936,5.0796,5.0909,5.0928,5.0979,5.1073,5.1085,5.1016,5.1014,5.116,5.1175,5.1191,5.1318,5.1241,5.1249,5.1254,5.1548,5.1552,5.1555,0,0,0,0,0,0,5.0676,5.0702,5.092,5.0824,5.0852,5.0917,5.0974,5.0983,5.1021,5.109,5.1101,5.1042,5.1159,5.1179,5.128,5.1324,5.1252,5.126,5.1545,5.1549,5.1553,5.1574,0,0,0,0,0,0,5.0668,5.07,5.0741,5.0825,5.0857,5.1008,5.0977,5.0988,5.1036,5.1035,5.1117,5.1129,5.1158,5.1267,5.1288,5.1334,5.1267,5.1541,5.1547,5.1552,5.157,5.1579,5.1586,0,0,0,0,0,5.0657,5.0739,5.0743,5.0769,5.091,5.101,5.1028,5.1062,5.104,5.1081,5.1125,5.1126,5.1316,5.1277,5.1301,5.1351,5.1538,5.1545,5.1552,5.1566,5.1577,5.1586,0,0,0,0,0,0,5.0657,5.0751,5.0756,5.0868,5.0931,5.1012,5.1065,5.1073,5.1143,5.1138,5.1176,5.1194,5.1294,5.1332,5.1287,5.1456,5.1424,5.1436,5.1427,5.1438,5.1446,5.1435,5.1274,0,0,0,0,0,5.0671,5.0746,5.0823,5.0914,5.0946,5.1,5.1045,5.1066,5.1132,5.1159,5.121,5.1273,5.1347,5.1394,5.1466,5.1575,5.1593,5.1621,5.1629,5.1636,5.1646,5.1706,5.1719,5.1577,5.1576,5.1576,0,0,5.0698,5.0759,5.0803,5.0915,5.0967,5.1043,5.1022,5.1103,5.1159,5.117,5.1269,5.1309,5.1381,5.1487,5.1536,5.1522,5.1689,5.1644,5.1649,5.1655,5.1714,5.1727,5.1739,5.1581,5.158,5.1579,0,0,5.0787,5.0841,5.0923,5.0975,5.1054,5.109,5.1109,5.119,5.1217,5.1317,5.1327,5.1393,5.152,5.1571,5.1614,5.1722,5.1725,5.1744,5.1787,5.1846,5.1857,5.1867,5.1905,5.1919,5.1754,5.1754,5.1754,0,5.0811,5.0927,5.0963,5.1045,5.1093,5.1108,5.1191,5.1239,5.1337,5.1369,5.1352,5.1512,5.1562,5.1679,5.1706,5.174,5.1762,5.1735,5.1853,5.1863,5.1873,5.191,5.1925,5.1755,5.1755,5.1755,5.1755,0,5.0952,5.1032,5.1089,5.1185,5.124,5.1321,5.1368,5.1419,5.1434,5.1471,5.1572,5.1633,5.1717,5.1746,5.1762,5.1866,5.1855,5.1845,5.1815,5.1888,5.1923,5.1938,5.1758,5.1757,5.1757,5.1756,0,0,5.1046,5.1161,5.1181,5.1225,5.1313,5.1375,5.1456,5.154,5.1583,5.1649,5.1718,5.1824,5.1816,5.1864,5.1886,5.1937,5.2019,5.1921,5.1923,5.1937,5.2137,5.2144,5.216,5.2021,5.2024,5.2026,5.213,0,5.1145,5.1292,5.1327,5.1452,5.1526,5.1542,5.1612,5.1673,5.171,5.1776,5.1815,5.1891,5.1874,5.1903,5.1955,5.1998,5.2059,5.1991,5.2084,5.2087,5.2065,5.2178,5.2186,5.2281,5.2144,5.2147,5.2149,0,5.128,5.1352,5.1485,5.1564,5.1596,5.1659,5.1739,5.1803,5.1872,5.1894,5.1949,5.1965,5.2048,5.2013,5.2128,5.2081,5.2121,5.2148,5.2152,5.2162,5.2122,5.2191,5.2313,5.2327,5.2171,5.2169,5.2167,0,5.1335,5.1464,5.1561,5.1598,5.1692,5.1736,5.1777,5.1843,5.1891,5.196,5.1992,5.2069,5.2111,5.2169,5.2205,5.2177,5.2317,5.2285,5.2337,5.2337,5.2366,5.2364,5.2496,5.2392,5.2392,5.2391,5.2391,0,5.1442,5.1523,5.1587,5.1647,5.1737,5.1776,5.1864,5.1904,5.1963,5.2029,5.2046,5.2108,5.2152,5.2219,5.2247,5.2338,5.2356,5.2376,5.2383,5.2375,5.2372,5.2402,5.2396,5.2395,5.2394,5.2394,5.2393,0,5.1519,5.1565,5.1672,5.1752,5.1774,5.1838,5.1906,5.1963,5.2,5.2083,5.2105,5.2162,5.2242,5.2284,5.2383,5.2402,5.2504,5.2506,5.2481,5.2484,5.2534,5.2528,5.2689,5.2712,5.2592,5.2594,5.2595,0,5.1585,5.1648,5.1735,5.1782,5.1824,5.1899,5.1948,5.1988,5.2039,5.2122,5.2169,5.225,5.2317,5.2443,5.2493,5.2568,5.2573,5.2624,5.2584,5.2574,5.2574,5.257,5.2576,5.2631,5.2632,5.2633,5.2634,0,5.1696,5.1716,5.1788,5.1868,5.1928,5.1992,5.2056,5.2092,5.2142,5.2198,5.2281,5.2333,5.2435,5.2515,5.2594,5.2634,5.2642,5.2646,5.2662,5.2655,5.2638,5.2647,5.25,5.2642,5.2641,5.2641,5.264,5.264,5.177,5.1826,5.1897,5.1976,5.2029,5.2088,5.2146,5.219,5.2261,5.2348,5.2366,5.2454,5.252,5.2628,5.267,5.2738,5.2727,5.275,5.2756,5.2762,5.2764,5.2627,5.2752,5.2752,5.2752,5.2752,5.2752,0,5.1882,5.1928,5.2001,5.209,5.2153,5.2156,5.2226,5.2278,5.2355,5.2417,5.2483,5.2578,5.2655,5.2711,5.2789,5.2833,5.2838,5.2852,5.2849,5.2858,5.2769,5.2747,5.2846,5.2846,5.2846,5.2846,5.2846,5.2846,5.1948,5.2044,5.2072,5.2193,5.2238,5.2326,5.2366,5.242,5.2469,5.2575,5.264,5.2676,5.2735,5.2818,5.2889,5.2903,5.2931,5.2945,5.2959,5.2874,5.2864,5.2855,5.2835,5.295,5.2951,5.3043,5.3043,5.3044]}]]